This is the latest recevied weather packets stored in our database for station/object KB1ZFK. If no packets are shown the sender has not sent any weather packets the latest 10 day(s).
| Time | Temp. | Humidity | Pressure | Rain* | Wind** | Luminosity | Snow |
|---|---|---|---|---|---|---|---|
| 1777842464 | 9.44° C | 49% | 1006.2 hPa | 0 mm | - | 103 W/m² | - |
| 1777842163 | 9.44° C | 49% | 1006.2 hPa | 0 mm | - | 69 W/m² | - |
| 1777841863 | 9.44° C | 49% | 1006.2 hPa | 0 mm | - | 76 W/m² | - |
| 1777841559 | 9.44° C | 46% | 1006.2 hPa | 0 mm | - | 75 W/m² | - |
| 1777841256 | 9.44° C | 50% | 1006.2 hPa | 0 mm | - | 85 W/m² | - |
| 1777840954 | 9.44° C | 45% | 1006 hPa | 0 mm | - | 93 W/m² | - |
| 1777840651 | 10° C | 46% | 1005.9 hPa | 0 mm | - | 120 W/m² | - |
| 1777840348 | 10° C | 50% | 1006.1 hPa | 0 mm | - | 125 W/m² | - |
| 1777840045 | 9.44° C | 47% | 1005.8 hPa | 0 mm | - | 138 W/m² | - |
| 1777839743 | 9.44° C | 47% | 1005.9 hPa | 0 mm | - | 94 W/m² | - |
| 1777839441 | 9.44° C | 51% | 1005.9 hPa | 0 mm | - | 107 W/m² | - |
| 1777839138 | 10° C | 47% | 1006.1 hPa | 0 mm | - | 135 W/m² | - |
| 1777838834 | 10° C | 45% | 1006 hPa | 0 mm | - | 197 W/m² | - |
| 1777838531 | 10° C | 46% | 1006 hPa | 0 mm | - | 173 W/m² | - |
| 1777838227 | 10° C | 46% | 1005.9 hPa | 0 mm | - | 146 W/m² | - |
| 1777837925 | 10° C | 48% | 1005.8 hPa | 0 mm | - | 163 W/m² | - |
| 1777837621 | 10° C | 52% | 1005.9 hPa | 0 mm | - | 192 W/m² | - |
| 1777837317 | 10.56° C | 49% | 1005.8 hPa | 0 mm | - | 214 W/m² | - |
| 1777837014 | 10.56° C | 50% | 1006.1 hPa | 0 mm | - | 256 W/m² | - |
| 1777836709 | 10° C | 53% | 1005.7 hPa | 0 mm | - | 228 W/m² | - |
| 1777836405 | 10° C | 47% | 1005.8 hPa | 0 mm | - | 168 W/m² | - |
| 1777836101 | 10° C | 48% | 1005.7 hPa | 0 mm | - | 177 W/m² | - |
| 1777835798 | 10° C | 47% | 1005.9 hPa | 0 mm | - | 231 W/m² | - |
| 1777835495 | 10° C | 48% | 1005.8 hPa | 0 mm | - | 241 W/m² | - |
| 1777835192 | 10° C | 52% | 1005.9 hPa | 0 mm | - | 205 W/m² | - |
* Rain latest hour (hover to see other rain measurements)
** Current wind speed in m/s (hover to see current wind gust speed)